User: anonymous
Location: Ostrava
(49.8330°N, 18.2830°E)
Time: 08:13:47
(UTC+02:00)
Language:

Explorer 7 - Orbit

View from above orbital plane
View from above orbital plane
View from above satellite
View from above satellite

Ground track
Ground track

The orbit data is extracted from the following two-line orbital elements,

1 00022U 59009A   14112.84042143  .00004927  00000-0  43832-3 0  8873
2 00022 050.2844 180.7326 0155944 333.6370 025.6700 14.88848716889403
Epoch (UTC): 22 April 2014 20:10:12
Eccentricity: 0.0155944
inclination: 50.2844°
perigee height: 492 km
apogee height: 710 km
right ascension of ascending node: 180.7326°
argument of perigee: 333.6370°
revolutions per day: 14.88848716
mean anomaly at epoch: 25.6700°
orbit number at epoch: 88940

The dashed part of the orbit path shows where the satellite is in the earth's shadow,  

DLR